Vertical_Velocity
-2 -2 1 8 4 1 -2 3 2 1 0 -2 -0 2 -1 -1 -3 -2 1 -1 -0 -1 3 4 3 3 5 3 3 5 -8 3 1 3 -0 0 1 1 0 -5 -1 2 1
-0 -5 -3 8 6 1 2 0 -2 -1 1 1 -1 1 -1 1 -1 -0 -1 0 -0 -2 -0 2 3 2 2 4 6 4 3 -2 0 2 2 -0 1 2 -1 -1 -5 0 2
4 2 -1 -9 3 9 0 1 1 2 3 5 -0 1 2 1 -1 -2 -0 -1 -1 -2 -0 -3 0 1 4 -1 0 1 4 0 4 3 -3 0 -0 -0 -2 0 -2 -4 1
1 2 -1 1 -3 3 2 -4 0 1 2 1 3 -0 -1 2 2 -5 0 -1 -1 -1 -1 -2 -2 1 3 5 1 -2 3 1 -0 1 1 1 -0 1 0 -3 -2 -3 -3
4 -2 2 -0 5 6 -4 -3 -1 -1 -1 2 1 4 2 0 1 -0 -3 -2 -3 -2 -1 -2 -1 -1 1 2 -1 0 -0 -2 2 0 -0 -2 -1 2 2 0 1 -2 -4
2 0 3 3 13 18 2 14 -3 -2 -6 1 1 -3 3 3 0 0 -1 1 1 2 1 -2 -2 -2 -0 -2 5 2 -1 -0 2 1 0 0 -1 0 1 -1 1 1 0
-1 3 4 7 8 -7 10 -15 12 4 -1 -0 16 9 4 5 6 -0 4 5 1 -1 4 -1 -1 -2 -1 -2 -1 4 2 5 -1 0 -0 -1 -1 -1 -0 1 1 -1 -1
1 1 4 5 11 9 1 53 15 1 8 -1 -7 15 -3 4 2 5 5 2 4 -2 -5 -4 -2 -1 -2 -2 -2 0 3 3 5 2 2 -0 -0 -3 -2 -1 0 -2 -3
0 3 5 4 6 5 11 -38 43 -7 2 -2 1 -9 0 -8 1 -2 -0 -2 0 -1 2 -0 -0 -1 -2 -2 -1 -0 -1 1 2 4 5 -1 -0 1 1 -1 -1 -1 -0
-1 2 -2 2 7 -4 13 9 -3 -10 12 -5 14 1 14 -7 -7 1 -3 0 1 -2 -0 -0 2 1 0 -1 0 -0 0 -0 2 5 4 5 1 -1 -2 -0 0 -1 -0
-1 -1 2 4 5 -1 -7 4 8 -24 6 9 -9 2 5 1 4 -1 -5 -5 3 -2 -0 -1 2 3 -1 -1 -0 0 0 0 -2 -1 2 -1 3 3 1 0 -1 -1 1
-2 -1 0 3 3 1 -3 -9 3 -7 -41 18 -0 7 -5 -14 -9 -3 0 -3 -3 -8 0 -0 -2 -2 2 -1 -3 0 1 -0 -0 -2 -1 2 3 4 2 0 -0 0 0
-3 -2 1 2 6 1 2 1 3 -15 7 -5 12 -0 3 -5 4 -0 3 -2 -2 -1 -2 -3 -1 -1 1 2 -1 1 3 2 -1 -2 -2 -2 -2 2 3 3 1 2 -1
1 0 -3 1 2 5 1 6 1 -10 5 -43 74 10 8 6 -3 -6 -6 -4 0 -0 -2 -2 2 -2 -5 -2 -1 3 1 6 8 4 1 -0 -1 -1 -3 1 2 2 -0
-0 2 2 1 -2 1 1 7 3 -3 -12 -9 1 8 7 9 7 0 -1 -6 -2 -4 -8 -6 -5 1 3 -1 -5 -2 -1 -1 -0 5 4 2 0 -1 0 -0 0 0 2
4 -6 9 2 1 3 1 -2 -0 2 14 6 -10 -42 -1 12 8 10 2 5 1 -1 -2 4 -5 -4 1 1 2 -0 1 4 -1 0 -2 1 1 0 -2 -4 -1 -4 -2
-1 -7 22 6 -1 4 5 5 10 12 10 16 5 -3 -14 9 12 7 6 6 4 1 -2 10 2 0 -7 -1 5 3 1 1 -2 -1 3 -2 1 0 -2 1 1 0 -1
3 -3 15 7 -2 -2 -1 3 8 3 -1 -9 4 -11 -13 8 7 10 7 7 3 3 3 -4 1 -2 -8 2 4 3 -2 -6 -3 -1 5 1 4 -1 -4 -1 1 -1 1
1 -2 10 9 9 8 9 5 7 13 6 10 1 4 3 5 5 14 6 20 -0 -5 -1 -0 -2 5 2 3 2 0 5 -2 -6 -3 0 5 9 4 -1 1 5 5 -2
-6 2 3 15 5 12 13 11 9 4 9 7 6 8 2 2 -5 3 7 5 1 6 0 2 2 4 9 12 11 -4 5 3 -4 1 6 4 -1 -1 2 1 -3 2 -0
-11 2 3 11 8 -0 7 12 -19 11 17 11 10 4 -8 -7 -2 1 22 12 6 10 12 -0 -1 7 1 7 2 0 -2 3 3 -1 -1 0 3 -3 0 3 -0 4 4
-5 2 -5 -6 -14 11 8 18 3 8 9 2 -11 -7 -0 4 14 -5 2 29 8 9 8 9 1 -5 -6 2 1 -10 23 1 6 -1 -2 -4 2 -5 3 4 4 0 6
6 -11 1 2 1 -3 2 11 15 -3 3 7 12 9 -7 -2 -13 -4 1 1 -3 -5 -3 13 12 -12 5 -5 -1 9 4 -12 4 0 -3 -8 -1 -5 3 -3 -6 7 14
-7 -3 7 -6 1 -13 4 -5 2 8 9 2 2 16 5 -5 -6 -2 -2 2 4 -5 -11 6 -4 9 -11 0 7 1 -1 3 -1 2 2 -6 -6 -2 4 3 2 13 1
3 -6 -8 -1 -10 -8 -5 -11 -5 -0 2 -3 8 -9 4 -9 -2 -3 -4 -5 2 -8 -15 5 -0 12 -3 2 0 -0 4 -3 0 -1 -0 -0 -4 -5 -3 -1 1 -2 -2
6 7 -2 7 2 -7 -13 -13 -4 -1 1 0 -3 -3 5 -7 3 -3 1 3 -1 -1 4 4 4 -3 -1 -0 4 -2 0 5 -1 -0 0 -2 -4 -2 -5 -6 -2 0 -1
Height
1486 1487 1488 1489 1490 1491 1493 1495 1497 1498 1500 1503 1504 1505 1507 1508 1511 1513 1515 1516 1518 1520 1521 1523 1524 1528 1530 1532 1534 1536 1538 1542 1544 1545 1547 1550 1552 1554 1555 1556 1560 1562 1562
1480 1480 1480 1482 1483 1485 1487 1490 1492 1493 1495 1497 1499 1501 1503 1504 1507 1509 1511 1513 1515 1516 1518 1520 1522 1524 1526 1529 1532 1533 1536 1539 1541 1543 1545 1547 1549 1551 1553 1553 1556 1559 1561
1472 1473 1473 1473 1475 1477 1480 1483 1485 1488 1490 1492 1494 1496 1499 1501 1503 1505 1508 1510 1512 1513 1515 1517 1519 1521 1523 1526 1529 1531 1534 1537 1539 1540 1542 1544 1546 1548 1550 1552 1552 1555 1557
1463 1462 1463 1465 1466 1468 1469 1473 1477 1480 1483 1486 1488 1490 1493 1496 1498 1501 1504 1506 1508 1510 1512 1514 1515 1518 1520 1522 1524 1528 1531 1533 1536 1538 1539 1541 1543 1544 1546 1547 1548 1550 1553
1450 1452 1452 1454 1457 1456 1453 1461 1466 1471 1476 1479 1482 1485 1489 1491 1494 1496 1499 1502 1505 1507 1509 1510 1513 1515 1517 1519 1521 1524 1527 1530 1532 1534 1536 1537 1540 1541 1542 1543 1544 1546 1549
1437 1439 1440 1443 1447 1448 1448 1449 1454 1460 1466 1472 1477 1480 1483 1486 1489 1490 1493 1498 1501 1503 1505 1507 1508 1511 1513 1516 1518 1520 1523 1525 1528 1530 1532 1533 1536 1537 1539 1540 1541 1543 1545
1424 1426 1428 1432 1435 1438 1435 1439 1447 1448 1456 1463 1470 1474 1478 1482 1483 1485 1488 1491 1495 1499 1501 1503 1505 1507 1509 1512 1515 1517 1518 1521 1523 1525 1527 1529 1531 1534 1536 1538 1539 1540 1542
1412 1414 1417 1420 1425 1427 1422 1427 1439 1441 1446 1452 1460 1466 1471 1475 1475 1479 1482 1484 1488 1493 1496 1497 1499 1501 1504 1507 1510 1512 1514 1516 1517 1520 1521 1524 1526 1529 1531 1534 1535 1537 1539
1402 1403 1406 1409 1412 1418 1422 1419 1419 1435 1438 1443 1450 1456 1461 1464 1465 1472 1474 1477 1481 1484 1488 1491 1494 1496 1499 1502 1504 1507 1509 1511 1513 1515 1517 1519 1521 1524 1526 1529 1531 1533 1535
1391 1392 1394 1399 1403 1408 1412 1418 1418 1424 1432 1433 1441 1449 1451 1454 1458 1462 1467 1469 1474 1478 1481 1485 1488 1491 1493 1495 1498 1501 1503 1506 1508 1510 1512 1514 1516 1518 1521 1524 1526 1528 1530
1385 1384 1386 1391 1394 1399 1402 1404 1410 1411 1421 1425 1430 1437 1444 1447 1450 1452 1455 1461 1465 1469 1474 1478 1482 1485 1486 1489 1492 1495 1497 1499 1502 1505 1507 1509 1511 1513 1515 1518 1520 1522 1524
1378 1377 1378 1380 1387 1392 1396 1400 1402 1404 1408 1420 1423 1428 1433 1437 1440 1445 1448 1454 1456 1461 1467 1471 1475 1478 1480 1482 1485 1488 1490 1493 1495 1498 1501 1503 1505 1507 1509 1512 1514 1516 1518
1372 1371 1371 1373 1378 1385 1389 1392 1395 1398 1406 1410 1415 1420 1425 1429 1433 1438 1444 1449 1453 1456 1460 1464 1467 1471 1474 1476 1479 1482 1484 1486 1488 1490 1493 1495 1498 1500 1503 1505 1507 1509 1511
1367 1364 1364 1366 1370 1376 1382 1386 1389 1391 1401 1400 1397 1413 1417 1422 1425 1430 1436 1443 1448 1451 1453 1456 1459 1462 1466 1469 1473 1477 1478 1480 1482 1484 1486 1488 1490 1493 1496 1497 1500 1502 1504
1364 1359 1358 1362 1366 1369 1375 1379 1383 1386 1389 1392 1397 1402 1410 1415 1418 1423 1429 1436 1442 1444 1447 1450 1454 1457 1460 1462 1466 1469 1471 1473 1475 1478 1479 1481 1482 1485 1488 1490 1493 1495 1497
1360 1355 1357 1359 1362 1364 1367 1373 1377 1381 1385 1390 1394 1398 1403 1407 1412 1416 1421 1428 1433 1438 1441 1444 1447 1452 1455 1456 1458 1460 1463 1465 1466 1468 1471 1473 1476 1477 1479 1482 1484 1487 1489
1357 1357 1355 1357 1359 1359 1361 1365 1368 1372 1378 1383 1386 1390 1394 1402 1404 1409 1415 1420 1425 1430 1433 1436 1439 1443 1447 1450 1451 1452 1455 1456 1456 1457 1461 1465 1467 1469 1471 1473 1475 1478 1480
1361 1360 1354 1356 1358 1359 1359 1361 1362 1363 1367 1371 1373 1382 1385 1390 1396 1403 1408 1412 1417 1422 1426 1428 1432 1436 1440 1442 1445 1446 1447 1449 1449 1450 1453 1456 1459 1461 1463 1464 1466 1468 1471
1368 1364 1360 1357 1358 1359 1356 1358 1361 1363 1364 1367 1369 1371 1384 1387 1388 1396 1399 1403 1407 1414 1418 1423 1425 1429 1433 1435 1436 1438 1439 1438 1440 1444 1446 1448 1450 1452 1454 1455 1456 1459 1461
1377 1373 1368 1364 1363 1362 1360 1359 1361 1360 1362 1365 1368 1370 1375 1380 1382 1390 1390 1394 1401 1404 1409 1413 1419 1423 1426 1427 1428 1428 1430 1429 1431 1435 1438 1439 1441 1443 1444 1446 1448 1450 1451
1389 1388 1378 1371 1373 1370 1372 1371 1372 1367 1364 1362 1366 1372 1377 1387 1391 1392 1383 1387 1393 1397 1400 1402 1411 1412 1416 1414 1416 1418 1418 1421 1424 1425 1426 1430 1431 1432 1434 1435 1436 1438 1441
1400 1392 1386 1387 1378 1379 1383 1379 1379 1373 1369 1372 1376 1383 1387 1385 1389 1392 1392 1394 1391 1391 1386 1396 1402 1406 1407 1407 1411 1410 1403 1412 1415 1418 1416 1419 1421 1424 1426 1425 1426 1427 1429
1414 1406 1402 1394 1390 1390 1392 1392 1389 1387 1384 1383 1386 1384 1382 1388 1393 1394 1394 1392 1398 1400 1397 1403 1398 1400 1402 1408 1410 1401 1403 1404 1407 1409 1408 1411 1415 1417 1416 1416 1417 1417 1416
1421 1416 1407 1401 1402 1402 1403 1404 1403 1400 1395 1393 1395 1387 1391 1390 1398 1400 1402 1402 1395 1402 1405 1405 1403 1400 1404 1408 1403 1400 1400 1399 1401 1404 1401 1401 1405 1406 1408 1407 1407 1407 1409
1429 1424 1423 1417 1413 1413 1414 1415 1415 1412 1405 1402 1397 1397 1399 1401 1406 1404 1408 1406 1403 1404 1407 1406 1406 1401 1402 1405 1402 1402 1399 1395 1398 1399 1399 1396 1399 1398 1399 1398 1398 1398 1399
1438 1433 1429 1424 1422 1423 1426 1430 1431 1425 1417 1411 1408 1409 1408 1406 1406 1407 1407 1407 1405 1408 1408 1408 1404 1405 1404 1403 1400 1400 1400 1396 1396 1396 1395 1396 1396 1393 1391 1389 1392 1391 1391